Year,Month,Day,Hour,Minute,Value (Times are PST for temperature in C)
2013,07,01,00,00,19.70
2013,07,01,00,01,19.60
2013,07,01,00,02,19.60
2013,07,01,00,03,19.60
2013,07,01,00,04,19.60
2013,07,01,00,05,19.60
2013,07,01,00,06,19.50
2013,07,01,00,07,19.50
2013,07,01,00,08,19.50
2013,07,01,00,09,19.50
2013,07,01,00,10,19.50
2013,07,01,00,11,19.50
2013,07,01,00,12,19.50
2013,07,01,00,13,19.40
2013,07,01,00,14,19.40
2013,07,01,00,15,19.40
2013,07,01,00,16,19.40
2013,07,01,00,17,19.40
2013,07,01,00,18,19.40
2013,07,01,00,19,19.40
2013,07,01,00,20,19.40
2013,07,01,00,21,19.30
2013,07,01,00,22,19.30
2013,07,01,00,23,19.30
2013,07,01,00,24,19.30
2013,07,01,00,25,19.30
2013,07,01,00,26,19.20
2013,07,01,00,27,19.20
2013,07,01,00,28,19.20
2013,07,01,00,29,19.10
2013,07,01,00,30,19.10
2013,07,01,00,31,19.10
2013,07,01,00,32,19.10
2013,07,01,00,33,19.10
2013,07,01,00,34,19.10
2013,07,01,00,35,19.10
2013,07,01,00,36,19.10
2013,07,01,00,37,19.00
2013,07,01,00,38,18.90
2013,07,01,00,39,18.90
2013,07,01,00,40,18.90
2013,07,01,00,41,18.90
2013,07,01,00,42,18.80
2013,07,01,00,43,18.80
2013,07,01,00,44,18.80
2013,07,01,00,45,18.70
2013,07,01,00,46,18.70
2013,07,01,00,47,18.60
2013,07,01,00,48,18.60
2013,07,01,00,49,18.60
2013,07,01,00,50,18.50
2013,07,01,00,51,18.50
2013,07,01,00,52,18.50
2013,07,01,00,53,18.40
2013,07,01,00,54,18.40
2013,07,01,00,55,18.40
2013,07,01,00,56,18.30
2013,07,01,00,57,18.30
2013,07,01,00,58,18.20
2013,07,01,00,59,18.20
2013,07,01,01,00,18.20
2013,07,01,01,01,18.20
2013,07,01,01,02,18.10
2013,07,01,01,03,18.10
2013,07,01,01,04,18.00
2013,07,01,01,05,17.90
2013,07,01,01,06,17.90
2013,07,01,01,07,17.90
2013,07,01,01,08,17.90
2013,07,01,01,09,17.90
2013,07,01,01,10,17.90
2013,07,01,01,11,17.90
2013,07,01,01,12,17.90
2013,07,01,01,13,17.90
2013,07,01,01,14,17.80
2013,07,01,01,15,17.80
2013,07,01,01,16,17.70
2013,07,01,01,17,17.60
2013,07,01,01,18,17.60
2013,07,01,01,19,17.50
2013,07,01,01,20,17.50
2013,07,01,01,21,17.40
2013,07,01,01,22,17.30
2013,07,01,01,23,17.30
2013,07,01,01,24,17.30
2013,07,01,01,25,17.20
2013,07,01,01,26,17.20
2013,07,01,01,27,17.10
2013,07,01,01,28,17.10
2013,07,01,01,29,17.00
2013,07,01,01,30,17.00
2013,07,01,01,31,17.00
2013,07,01,01,32,17.00
2013,07,01,01,33,16.90
2013,07,01,01,34,16.90
2013,07,01,01,35,16.90
2013,07,01,01,36,16.90
2013,07,01,01,37,16.90
2013,07,01,01,38,16.90
2013,07,01,01,39,16.90
2013,07,01,01,40,16.90
2013,07,01,01,41,16.90
2013,07,01,01,42,16.90
2013,07,01,01,43,16.90
2013,07,01,01,44,16.90
2013,07,01,01,45,16.90
2013,07,01,01,46,16.90
2013,07,01,01,47,16.90
2013,07,01,01,48,16.90
2013,07,01,01,49,16.90
2013,07,01,01,50,16.90
2013,07,01,01,51,16.90
2013,07,01,01,52,17.00
2013,07,01,01,53,17.00
2013,07,01,01,54,17.00
2013,07,01,01,55,17.00
2013,07,01,01,56,17.10
2013,07,01,01,57,17.10
2013,07,01,01,58,17.10
2013,07,01,01,59,17.20
2013,07,01,02,00,17.20
2013,07,01,02,01,17.20
2013,07,01,02,02,17.30
2013,07,01,02,03,17.30
2013,07,01,02,04,17.30
2013,07,01,02,05,17.30
2013,07,01,02,06,17.30
2013,07,01,02,07,17.40
2013,07,01,02,08,17.40
2013,07,01,02,09,17.40
2013,07,01,02,10,17.30
2013,07,01,02,11,17.30
2013,07,01,02,12,17.30
2013,07,01,02,13,17.40
2013,07,01,02,14,17.40
2013,07,01,02,15,17.40
2013,07,01,02,16,17.40
2013,07,01,02,17,17.40
2013,07,01,02,18,17.40
2013,07,01,02,19,17.40
2013,07,01,02,20,17.50
2013,07,01,02,21,17.50
2013,07,01,02,22,17.60
2013,07,01,02,23,17.60
2013,07,01,02,24,17.60
2013,07,01,02,25,17.70
2013,07,01,02,26,17.80
2013,07,01,02,27,17.80
2013,07,01,02,28,17.90
2013,07,01,02,29,17.90
2013,07,01,02,30,17.90
2013,07,01,02,31,17.90
2013,07,01,02,32,17.90
2013,07,01,02,33,17.90
2013,07,01,02,34,17.90
2013,07,01,02,35,17.90
2013,07,01,02,36,17.90
2013,07,01,02,37,17.90
2013,07,01,02,38,17.90
2013,07,01,02,39,17.90
2013,07,01,02,40,17.90
2013,07,01,02,41,17.90
2013,07,01,02,42,17.80
2013,07,01,02,43,17.80
2013,07,01,02,44,17.80
2013,07,01,02,45,17.80
2013,07,01,02,46,17.80
2013,07,01,02,47,17.80
2013,07,01,02,48,17.70
2013,07,01,02,49,17.70
2013,07,01,02,50,17.70
2013,07,01,02,51,17.70
2013,07,01,02,52,17.70
2013,07,01,02,53,17.60
2013,07,01,02,54,17.60
2013,07,01,02,55,17.60
2013,07,01,02,56,17.60
2013,07,01,02,57,17.60
2013,07,01,02,58,17.60
2013,07,01,02,59,17.60
2013,07,01,03,00,17.60
2013,07,01,03,01,17.60
2013,07,01,03,02,17.60
2013,07,01,03,03,17.60
2013,07,01,03,04,17.60
2013,07,01,03,05,17.60
2013,07,01,03,06,17.60
2013,07,01,03,07,17.60
2013,07,01,03,08,17.60
2013,07,01,03,09,17.60
2013,07,01,03,10,17.60
2013,07,01,03,11,17.60
2013,07,01,03,12,17.60
2013,07,01,03,13,17.60
2013,07,01,03,14,17.60
2013,07,01,03,15,17.60
2013,07,01,03,16,17.60
2013,07,01,03,17,17.60
2013,07,01,03,18,17.60
2013,07,01,03,19,17.60
2013,07,01,03,20,17.50
2013,07,01,03,21,17.50
2013,07,01,03,22,17.50
2013,07,01,03,23,17.50
2013,07,01,03,24,17.50
2013,07,01,03,25,17.50
2013,07,01,03,26,17.40
2013,07,01,03,27,17.40
2013,07,01,03,28,17.40
2013,07,01,03,29,17.30
2013,07,01,03,30,17.30
2013,07,01,03,31,17.30
2013,07,01,03,32,17.30
2013,07,01,03,33,17.30
2013,07,01,03,34,17.30
2013,07,01,03,35,17.20
2013,07,01,03,36,17.20
2013,07,01,03,37,17.20
2013,07,01,03,38,17.10
2013,07,01,03,39,17.00
2013,07,01,03,40,17.00
2013,07,01,03,41,16.90
2013,07,01,03,42,16.80
2013,07,01,03,43,16.80
2013,07,01,03,44,16.70
2013,07,01,03,45,16.70
2013,07,01,03,46,16.70
2013,07,01,03,47,16.70
2013,07,01,03,48,16.60
2013,07,01,03,49,16.60
2013,07,01,03,50,16.50
2013,07,01,03,51,16.40
2013,07,01,03,52,16.40
2013,07,01,03,53,16.40
2013,07,01,03,54,16.40
2013,07,01,03,55,16.30
2013,07,01,03,56,16.30
2013,07,01,03,57,16.30
2013,07,01,03,58,16.20
2013,07,01,03,59,16.20
2013,07,01,04,00,16.20
2013,07,01,04,01,16.10
2013,07,01,04,02,16.10
2013,07,01,04,03,16.10
2013,07,01,04,04,16.10
2013,07,01,04,05,16.10
2013,07,01,04,06,16.10
2013,07,01,04,07,16.10
2013,07,01,04,08,16.10
2013,07,01,04,09,16.10
2013,07,01,04,10,16.10
2013,07,01,04,11,16.10
2013,07,01,04,12,16.10
2013,07,01,04,13,16.10
2013,07,01,04,14,16.10
2013,07,01,04,15,16.10
2013,07,01,04,16,16.10
2013,07,01,04,17,16.10
2013,07,01,04,18,16.10
2013,07,01,04,19,16.10
2013,07,01,04,20,16.10
2013,07,01,04,21,16.10
2013,07,01,04,22,16.10
2013,07,01,04,23,16.10
2013,07,01,04,24,16.10
2013,07,01,04,25,16.10
2013,07,01,04,26,16.10
2013,07,01,04,27,16.10
2013,07,01,04,28,16.10
2013,07,01,04,29,16.10
2013,07,01,04,30,16.10
2013,07,01,04,31,16.10
2013,07,01,04,32,16.10
2013,07,01,04,33,16.10
2013,07,01,04,34,16.10
2013,07,01,04,35,16.00
2013,07,01,04,36,15.90
2013,07,01,04,37,15.90
2013,07,01,04,38,15.90
2013,07,01,04,39,15.90
2013,07,01,04,40,15.90
2013,07,01,04,41,15.90
2013,07,01,04,42,15.90
2013,07,01,04,43,15.90
2013,07,01,04,44,15.90
2013,07,01,04,45,15.90
2013,07,01,04,46,15.90
2013,07,01,04,47,15.80
2013,07,01,04,48,15.80
2013,07,01,04,49,15.80
2013,07,01,04,50,15.80
2013,07,01,04,51,15.80
2013,07,01,04,52,15.80
2013,07,01,04,53,15.80
2013,07,01,04,54,15.80
2013,07,01,04,55,15.80
2013,07,01,04,56,15.80
2013,07,01,04,57,15.80
2013,07,01,04,58,15.80
2013,07,01,04,59,15.80
2013,07,01,05,00,15.80
2013,07,01,05,01,15.80
2013,07,01,05,02,15.80
2013,07,01,05,03,15.80
2013,07,01,05,04,15.80
2013,07,01,05,05,15.80
2013,07,01,05,06,15.90
2013,07,01,05,07,15.90
2013,07,01,05,08,15.90
2013,07,01,05,09,16.00
2013,07,01,05,10,16.10
2013,07,01,05,11,16.10
2013,07,01,05,12,16.10
2013,07,01,05,13,16.10
2013,07,01,05,14,16.10
2013,07,01,05,15,16.10
2013,07,01,05,16,16.10
2013,07,01,05,17,16.10
2013,07,01,05,18,16.10
2013,07,01,05,19,16.10
2013,07,01,05,20,16.10
2013,07,01,05,21,16.10
2013,07,01,05,22,16.10
2013,07,01,05,23,16.10
2013,07,01,05,24,16.10
2013,07,01,05,25,16.10
2013,07,01,05,26,16.10
2013,07,01,05,27,16.10
2013,07,01,05,28,16.10
2013,07,01,05,29,16.10
2013,07,01,05,30,16.20
2013,07,01,05,31,16.20
2013,07,01,05,32,16.20
2013,07,01,05,33,16.20
2013,07,01,05,34,16.20
2013,07,01,05,35,16.20
2013,07,01,05,36,16.20
2013,07,01,05,37,16.20
2013,07,01,05,38,16.20
2013,07,01,05,39,16.30
2013,07,01,05,40,16.30
2013,07,01,05,41,16.30
2013,07,01,05,42,16.30
2013,07,01,05,43,16.30
2013,07,01,05,44,16.30
2013,07,01,05,45,16.30
2013,07,01,05,46,16.40
2013,07,01,05,47,16.40
2013,07,01,05,48,16.40
2013,07,01,05,49,16.40
2013,07,01,05,50,16.40
2013,07,01,05,51,16.40
2013,07,01,05,52,16.50
2013,07,01,05,53,16.60
2013,07,01,05,54,16.60
2013,07,01,05,55,16.70
2013,07,01,05,56,16.70
2013,07,01,05,57,16.70
2013,07,01,05,58,16.80
2013,07,01,05,59,16.80
2013,07,01,06,00,16.90
2013,07,01,06,01,16.90
2013,07,01,06,02,17.00
2013,07,01,06,03,17.00
2013,07,01,06,04,17.10
2013,07,01,06,05,17.10
2013,07,01,06,06,17.20
2013,07,01,06,07,17.20
2013,07,01,06,08,17.30
2013,07,01,06,09,17.30
2013,07,01,06,10,17.30
2013,07,01,06,11,17.30
2013,07,01,06,12,17.40
2013,07,01,06,13,17.40
2013,07,01,06,14,17.40
2013,07,01,06,15,17.50
2013,07,01,06,16,17.50
2013,07,01,06,17,17.60
2013,07,01,06,18,17.70
2013,07,01,06,19,17.70
2013,07,01,06,20,17.70
2013,07,01,06,21,17.70
2013,07,01,06,22,17.80
2013,07,01,06,23,17.80
2013,07,01,06,24,17.90
2013,07,01,06,25,17.90
2013,07,01,06,26,18.00
2013,07,01,06,27,18.10
2013,07,01,06,28,18.10
2013,07,01,06,29,18.10
2013,07,01,06,30,18.20
2013,07,01,06,31,18.10
2013,07,01,06,32,18.00
2013,07,01,06,33,17.90
2013,07,01,06,34,17.80
2013,07,01,06,35,17.60
2013,07,01,06,36,17.40
2013,07,01,06,37,17.30
2013,07,01,06,38,17.10
2013,07,01,06,39,17.00
2013,07,01,06,40,16.90
2013,07,01,06,41,16.90
2013,07,01,06,42,16.90
2013,07,01,06,43,16.80
2013,07,01,06,44,16.90
2013,07,01,06,45,16.90
2013,07,01,06,46,17.00
2013,07,01,06,47,17.00
2013,07,01,06,48,17.00
2013,07,01,06,49,17.10
2013,07,01,06,50,17.20
2013,07,01,06,51,17.20
2013,07,01,06,52,17.30
2013,07,01,06,53,17.30
2013,07,01,06,54,17.30
2013,07,01,06,55,17.40
2013,07,01,06,56,17.40
2013,07,01,06,57,17.50
2013,07,01,06,58,17.60
2013,07,01,06,59,17.60
2013,07,01,07,00,17.70
2013,07,01,07,01,17.70
2013,07,01,07,02,17.70
2013,07,01,07,03,17.70
2013,07,01,07,04,17.80
2013,07,01,07,05,17.80
2013,07,01,07,06,17.80
2013,07,01,07,07,17.90
2013,07,01,07,08,17.90
2013,07,01,07,09,17.90
2013,07,01,07,10,18.00
2013,07,01,07,11,18.10
2013,07,01,07,12,18.10
2013,07,01,07,13,18.20
2013,07,01,07,14,18.20
2013,07,01,07,15,18.20
2013,07,01,07,16,18.30
2013,07,01,07,17,18.40
2013,07,01,07,18,18.50
2013,07,01,07,19,18.60
2013,07,01,07,20,18.70
2013,07,01,07,21,18.80
2013,07,01,07,22,18.90
2013,07,01,07,23,18.90
2013,07,01,07,24,18.90
2013,07,01,07,25,19.10
2013,07,01,07,26,19.20
2013,07,01,07,27,19.30
2013,07,01,07,28,19.40
2013,07,01,07,29,19.50
2013,07,01,07,30,19.60
2013,07,01,07,31,19.60
2013,07,01,07,32,19.70
2013,07,01,07,33,19.80
2013,07,01,07,34,19.80
2013,07,01,07,35,19.90
2013,07,01,07,36,19.90
2013,07,01,07,37,20.00
2013,07,01,07,38,20.10
2013,07,01,07,39,20.20
2013,07,01,07,40,20.30
2013,07,01,07,41,20.40
2013,07,01,07,42,20.40
2013,07,01,07,43,20.50
2013,07,01,07,44,20.50
2013,07,01,07,45,20.60
2013,07,01,07,46,20.50
2013,07,01,07,47,20.50
2013,07,01,07,48,20.50
2013,07,01,07,49,20.40
2013,07,01,07,50,20.40
2013,07,01,07,51,20.50
2013,07,01,07,52,20.50
2013,07,01,07,53,20.60
2013,07,01,07,54,20.60
2013,07,01,07,55,20.70
2013,07,01,07,56,20.70
2013,07,01,07,57,20.80
2013,07,01,07,58,20.80
2013,07,01,07,59,20.90
2013,07,01,08,00,20.90
2013,07,01,08,01,21.00
2013,07,01,08,02,21.10
2013,07,01,08,03,21.20
2013,07,01,08,04,21.40
2013,07,01,08,05,21.50
2013,07,01,08,06,21.60
2013,07,01,08,07,21.70
2013,07,01,08,08,21.80
2013,07,01,08,09,22.00
2013,07,01,08,10,22.00
2013,07,01,08,11,22.10
2013,07,01,08,12,22.20
2013,07,01,08,13,22.20
2013,07,01,08,14,22.30
2013,07,01,08,15,22.40
2013,07,01,08,16,22.40
2013,07,01,08,17,22.40
2013,07,01,08,18,22.40
2013,07,01,08,19,22.40
2013,07,01,08,20,22.30
2013,07,01,08,21,22.30
2013,07,01,08,22,22.30
2013,07,01,08,23,22.20
2013,07,01,08,24,22.10
2013,07,01,08,25,22.10
2013,07,01,08,26,22.00
2013,07,01,08,27,22.00
2013,07,01,08,28,21.80
2013,07,01,08,29,21.70
2013,07,01,08,30,21.70
2013,07,01,08,31,21.60
2013,07,01,08,32,21.60
2013,07,01,08,33,21.40
2013,07,01,08,34,21.40
2013,07,01,08,35,21.40
2013,07,01,08,36,21.40
2013,07,01,08,37,21.50
2013,07,01,08,38,21.60
2013,07,01,08,39,21.60
2013,07,01,08,40,21.50
2013,07,01,08,41,21.40
2013,07,01,08,42,21.40
2013,07,01,08,43,21.40
2013,07,01,08,44,21.30
2013,07,01,08,45,21.30
2013,07,01,08,46,21.20
2013,07,01,08,47,21.10
2013,07,01,08,48,21.00
2013,07,01,08,49,20.90
2013,07,01,08,50,20.90
2013,07,01,08,51,20.80
2013,07,01,08,52,20.80
2013,07,01,08,53,20.80
2013,07,01,08,54,20.80
2013,07,01,08,55,20.80
2013,07,01,08,56,20.90
2013,07,01,08,57,20.90
2013,07,01,08,58,20.90
2013,07,01,08,59,20.90
2013,07,01,09,00,20.80
2013,07,01,09,01,20.80
2013,07,01,09,02,20.80
2013,07,01,09,03,20.80
2013,07,01,09,04,20.90
2013,07,01,09,05,20.90
2013,07,01,09,06,21.10
2013,07,01,09,07,21.20
2013,07,01,09,08,21.20
2013,07,01,09,09,21.20
2013,07,01,09,10,21.30
2013,07,01,09,11,21.30
2013,07,01,09,12,21.30
2013,07,01,09,13,21.40
2013,07,01,09,14,21.50
2013,07,01,09,15,21.60
2013,07,01,09,16,21.60
2013,07,01,09,17,21.60
2013,07,01,09,18,21.60
2013,07,01,09,19,21.60
2013,07,01,09,20,21.50
2013,07,01,09,21,21.30
2013,07,01,09,22,21.30
2013,07,01,09,23,21.10
2013,07,01,09,24,21.10
2013,07,01,09,25,21.10
2013,07,01,09,26,21.10
2013,07,01,09,27,21.20
2013,07,01,09,28,21.30
2013,07,01,09,29,21.30
2013,07,01,09,30,21.40
2013,07,01,09,31,21.40
2013,07,01,09,32,21.50
2013,07,01,09,33,21.60
2013,07,01,09,34,21.60
2013,07,01,09,35,21.70
2013,07,01,09,36,21.70
2013,07,01,09,37,21.80
2013,07,01,09,38,21.90
2013,07,01,09,39,21.90
2013,07,01,09,40,22.00
2013,07,01,09,41,22.00
2013,07,01,09,42,22.00
2013,07,01,09,43,22.00
2013,07,01,09,44,21.90
2013,07,01,09,45,21.90
2013,07,01,09,46,22.00
2013,07,01,09,47,21.90
2013,07,01,09,48,21.90
2013,07,01,09,49,21.90
2013,07,01,09,50,21.90
2013,07,01,09,51,22.00
2013,07,01,09,52,22.00
2013,07,01,09,53,22.20
2013,07,01,09,54,22.20
2013,07,01,09,55,22.30
2013,07,01,09,56,22.40
2013,07,01,09,57,22.50
2013,07,01,09,58,22.60
2013,07,01,09,59,22.70
2013,07,01,10,00,22.90
2013,07,01,10,01,22.90
2013,07,01,10,02,23.00
2013,07,01,10,03,23.10
2013,07,01,10,04,23.20
2013,07,01,10,05,23.20
2013,07,01,10,06,23.10
2013,07,01,10,07,23.10
2013,07,01,10,08,23.00
2013,07,01,10,09,22.90
2013,07,01,10,10,22.90
2013,07,01,10,11,23.00
2013,07,01,10,12,23.10
2013,07,01,10,13,23.10
2013,07,01,10,14,23.30
2013,07,01,10,15,23.30
2013,07,01,10,16,23.30
2013,07,01,10,17,23.40
2013,07,01,10,18,23.40
2013,07,01,10,19,23.40
2013,07,01,10,20,23.40
2013,07,01,10,21,23.40
2013,07,01,10,22,23.30
2013,07,01,10,23,23.30
2013,07,01,10,24,23.20
2013,07,01,10,25,23.10
2013,07,01,10,26,23.00
2013,07,01,10,27,22.90
2013,07,01,10,28,22.80
2013,07,01,10,29,22.80
2013,07,01,10,30,22.90
2013,07,01,10,31,23.00
2013,07,01,10,32,23.10
2013,07,01,10,33,23.10
2013,07,01,10,34,23.20
2013,07,01,10,35,23.30
2013,07,01,10,36,23.30
2013,07,01,10,37,23.20
2013,07,01,10,38,23.20
2013,07,01,10,39,23.10
2013,07,01,10,40,23.10
2013,07,01,10,41,23.10
2013,07,01,10,42,23.10
2013,07,01,10,43,23.20
2013,07,01,10,44,23.30
2013,07,01,10,45,23.20
2013,07,01,10,46,23.20
2013,07,01,10,47,23.20
2013,07,01,10,48,23.20
2013,07,01,10,49,23.30
2013,07,01,10,50,23.30
2013,07,01,10,51,23.30
2013,07,01,10,52,23.40
2013,07,01,10,53,23.40
2013,07,01,10,54,23.30
2013,07,01,10,55,23.30
2013,07,01,10,56,23.10
2013,07,01,10,57,22.90
2013,07,01,10,58,22.80
2013,07,01,10,59,22.80
2013,07,01,11,00,22.80
2013,07,01,11,01,22.80
2013,07,01,11,02,22.80
2013,07,01,11,03,22.90
2013,07,01,11,04,23.10
2013,07,01,11,05,23.30
2013,07,01,11,06,23.30
2013,07,01,11,07,23.30
2013,07,01,11,08,23.30
2013,07,01,11,09,23.30
2013,07,01,11,10,23.30
2013,07,01,11,11,23.40
2013,07,01,11,12,23.40
2013,07,01,11,13,23.50
2013,07,01,11,14,23.60
2013,07,01,11,15,23.60
2013,07,01,11,16,23.60
2013,07,01,11,17,23.50
2013,07,01,11,18,23.40
2013,07,01,11,19,23.40
2013,07,01,11,20,23.30
2013,07,01,11,21,23.30
2013,07,01,11,22,23.30
2013,07,01,11,23,23.50
2013,07,01,11,24,23.70
2013,07,01,11,25,23.80
2013,07,01,11,26,24.00
2013,07,01,11,27,24.10
2013,07,01,11,28,24.20
2013,07,01,11,29,24.30
2013,07,01,11,30,24.30
2013,07,01,11,31,24.30
2013,07,01,11,32,24.20
2013,07,01,11,33,24.10
2013,07,01,11,34,24.10
2013,07,01,11,35,24.30
2013,07,01,11,36,24.40
2013,07,01,11,37,24.40
2013,07,01,11,38,24.40
2013,07,01,11,39,24.40
2013,07,01,11,40,24.30
2013,07,01,11,41,24.40
2013,07,01,11,42,24.50
2013,07,01,11,43,24.50
2013,07,01,11,44,24.60
2013,07,01,11,45,24.60
2013,07,01,11,46,24.60
2013,07,01,11,47,24.80
2013,07,01,11,48,24.80
2013,07,01,11,49,24.80
2013,07,01,11,50,24.80
2013,07,01,11,51,24.60
2013,07,01,11,52,24.50
2013,07,01,11,53,24.40
2013,07,01,11,54,24.40
2013,07,01,11,55,24.40
2013,07,01,11,56,24.40
2013,07,01,11,57,24.40
2013,07,01,11,58,24.50
2013,07,01,11,59,24.60
2013,07,01,12,00,24.70
2013,07,01,12,01,24.70
2013,07,01,12,02,24.70
2013,07,01,12,03,24.40
2013,07,01,12,04,24.20
2013,07,01,12,05,24.10
2013,07,01,12,06,23.90
2013,07,01,12,07,23.70
2013,07,01,12,08,23.50
2013,07,01,12,09,23.40
2013,07,01,12,10,23.30
2013,07,01,12,11,23.30
2013,07,01,12,12,23.30
2013,07,01,12,13,23.30
2013,07,01,12,14,23.30
2013,07,01,12,15,23.40
2013,07,01,12,16,23.50
2013,07,01,12,17,23.70
2013,07,01,12,18,23.70
2013,07,01,12,19,23.80
2013,07,01,12,20,24.00
2013,07,01,12,21,24.20
2013,07,01,12,22,24.40
2013,07,01,12,23,24.60
2013,07,01,12,24,24.80
2013,07,01,12,25,25.10
2013,07,01,12,26,25.20
2013,07,01,12,27,25.20
2013,07,01,12,28,25.10
2013,07,01,12,29,25.10
2013,07,01,12,30,25.10
2013,07,01,12,31,25.10
2013,07,01,12,32,25.00
2013,07,01,12,33,24.90
2013,07,01,12,34,24.90
2013,07,01,12,35,24.90
2013,07,01,12,36,24.90
2013,07,01,12,37,24.80
2013,07,01,12,38,24.80
2013,07,01,12,39,24.90
2013,07,01,12,40,24.90
2013,07,01,12,41,24.90
2013,07,01,12,42,24.80
2013,07,01,12,43,24.70
2013,07,01,12,44,24.70
2013,07,01,12,45,24.80
2013,07,01,12,46,24.90
2013,07,01,12,47,25.00
2013,07,01,12,48,25.10
2013,07,01,12,49,25.10
2013,07,01,12,50,25.10
2013,07,01,12,51,25.10
2013,07,01,12,52,25.00
2013,07,01,12,53,24.90
2013,07,01,12,54,24.80
2013,07,01,12,55,24.60
2013,07,01,12,56,24.50
2013,07,01,12,57,24.50
2013,07,01,12,58,24.50
2013,07,01,12,59,24.50
2013,07,01,13,00,24.50
2013,07,01,13,01,24.50
2013,07,01,13,02,24.40
2013,07,01,13,03,24.40
2013,07,01,13,04,24.40
2013,07,01,13,05,24.40
2013,07,01,13,06,24.50
2013,07,01,13,07,24.50
2013,07,01,13,08,24.60
2013,07,01,13,09,24.60
2013,07,01,13,10,24.60
2013,07,01,13,11,24.70
2013,07,01,13,12,24.70
2013,07,01,13,13,24.70
2013,07,01,13,14,24.80
2013,07,01,13,15,24.80
2013,07,01,13,16,24.90
2013,07,01,13,17,24.90
2013,07,01,13,18,24.80
2013,07,01,13,19,24.80
2013,07,01,13,20,24.80
2013,07,01,13,21,24.80
2013,07,01,13,22,24.80
2013,07,01,13,23,24.80
2013,07,01,13,24,24.80
2013,07,01,13,25,24.80
2013,07,01,13,26,24.70
2013,07,01,13,27,24.70
2013,07,01,13,28,24.80
2013,07,01,13,29,24.90
2013,07,01,13,30,25.10
2013,07,01,13,31,25.10
2013,07,01,13,32,25.00
2013,07,01,13,33,25.00
2013,07,01,13,34,25.00
2013,07,01,13,35,25.00
2013,07,01,13,36,25.10
2013,07,01,13,37,25.10
2013,07,01,13,38,25.30
2013,07,01,13,39,25.30
2013,07,01,13,40,25.40
2013,07,01,13,41,25.60
2013,07,01,13,42,25.70
2013,07,01,13,43,25.60
2013,07,01,13,44,25.50
2013,07,01,13,45,25.50
2013,07,01,13,46,25.40
2013,07,01,13,47,25.30
2013,07,01,13,48,25.20
2013,07,01,13,49,25.00
2013,07,01,13,50,24.90
2013,07,01,13,51,24.70
2013,07,01,13,52,24.50
2013,07,01,13,53,24.20
2013,07,01,13,54,24.00
2013,07,01,13,55,23.70
2013,07,01,13,56,23.70
2013,07,01,13,57,23.60
2013,07,01,13,58,23.40
2013,07,01,13,59,23.30
2013,07,01,14,00,23.30
2013,07,01,14,01,23.20
2013,07,01,14,02,23.10
2013,07,01,14,03,23.10
2013,07,01,14,04,23.10
2013,07,01,14,05,23.20
2013,07,01,14,06,23.30
2013,07,01,14,07,23.40
2013,07,01,14,08,23.50
2013,07,01,14,09,23.70
2013,07,01,14,10,23.80
2013,07,01,14,11,24.00
2013,07,01,14,12,24.20
2013,07,01,14,13,24.30
2013,07,01,14,14,24.40
2013,07,01,14,15,24.60
2013,07,01,14,16,24.80
2013,07,01,14,17,24.90
2013,07,01,14,18,25.00
2013,07,01,14,19,25.20
2013,07,01,14,20,25.40
2013,07,01,14,21,25.60
2013,07,01,14,22,25.70
2013,07,01,14,23,25.60
2013,07,01,14,24,25.40
2013,07,01,14,25,25.30
2013,07,01,14,26,25.10
2013,07,01,14,27,24.90
2013,07,01,14,28,24.80
2013,07,01,14,29,24.90
2013,07,01,14,30,24.90
2013,07,01,14,31,24.90
2013,07,01,14,32,25.00
2013,07,01,14,33,24.90
2013,07,01,14,34,24.70
2013,07,01,14,35,24.50
2013,07,01,14,36,24.40
2013,07,01,14,37,24.40
2013,07,01,14,38,24.30
2013,07,01,14,39,24.20
2013,07,01,14,40,24.20
2013,07,01,14,41,24.20
2013,07,01,14,42,24.20
2013,07,01,14,43,24.20
2013,07,01,14,44,24.20
2013,07,01,14,45,24.20
2013,07,01,14,46,24.10
2013,07,01,14,47,24.10
2013,07,01,14,48,24.00
2013,07,01,14,49,23.90
2013,07,01,14,50,23.90
2013,07,01,14,51,24.10
2013,07,01,14,52,24.10
2013,07,01,14,53,24.20
2013,07,01,14,54,24.40
2013,07,01,14,55,24.50
2013,07,01,14,56,24.60
2013,07,01,14,57,24.80
2013,07,01,14,58,24.80
2013,07,01,14,59,24.90
2013,07,01,15,00,25.00
2013,07,01,15,01,25.10
2013,07,01,15,02,25.20
2013,07,01,15,03,25.30
2013,07,01,15,04,25.30
2013,07,01,15,05,25.30
2013,07,01,15,06,25.30
2013,07,01,15,07,25.30
2013,07,01,15,08,25.40
2013,07,01,15,09,25.50
2013,07,01,15,10,25.70
2013,07,01,15,11,25.80
2013,07,01,15,12,25.90
2013,07,01,15,13,26.10
2013,07,01,15,14,26.20
2013,07,01,15,15,26.40
2013,07,01,15,16,26.50
2013,07,01,15,17,26.60
2013,07,01,15,18,26.70
2013,07,01,15,19,26.80
2013,07,01,15,20,26.90
2013,07,01,15,21,27.00
2013,07,01,15,22,27.10
2013,07,01,15,23,27.20
2013,07,01,15,24,27.30
2013,07,01,15,25,27.40
2013,07,01,15,26,27.50
2013,07,01,15,27,27.60
2013,07,01,15,28,27.60
2013,07,01,15,29,27.60
2013,07,01,15,30,27.60
2013,07,01,15,31,27.60
2013,07,01,15,32,27.40
2013,07,01,15,33,27.40
2013,07,01,15,34,27.50
2013,07,01,15,35,27.50
2013,07,01,15,36,27.40
2013,07,01,15,37,27.40
2013,07,01,15,38,27.30
2013,07,01,15,39,27.30
2013,07,01,15,40,27.30
2013,07,01,15,41,27.30
2013,07,01,15,42,27.30
2013,07,01,15,43,27.30
2013,07,01,15,44,27.40
2013,07,01,15,45,27.50
2013,07,01,15,46,27.60
2013,07,01,15,47,27.50
2013,07,01,15,48,27.40
2013,07,01,15,49,27.30
2013,07,01,15,50,27.30
2013,07,01,15,51,27.40
2013,07,01,15,52,27.50
2013,07,01,15,53,27.60
2013,07,01,15,54,27.60
2013,07,01,15,55,27.60
2013,07,01,15,56,27.60
2013,07,01,15,57,27.50
2013,07,01,15,58,27.40
2013,07,01,15,59,27.30
2013,07,01,16,00,27.20
2013,07,01,16,01,27.00
2013,07,01,16,02,26.90
2013,07,01,16,03,26.60
2013,07,01,16,04,26.50
2013,07,01,16,05,26.40
2013,07,01,16,06,26.30
2013,07,01,16,07,26.30
2013,07,01,16,08,26.30
2013,07,01,16,09,26.40
2013,07,01,16,10,26.50
2013,07,01,16,11,26.60
2013,07,01,16,12,26.60
2013,07,01,16,13,26.70
2013,07,01,16,14,26.80
2013,07,01,16,15,26.90
2013,07,01,16,16,27.00
2013,07,01,16,17,27.10
2013,07,01,16,18,27.00
2013,07,01,16,19,26.90
2013,07,01,16,20,26.80
2013,07,01,16,21,26.80
2013,07,01,16,22,26.80
2013,07,01,16,23,26.90
2013,07,01,16,24,27.00
2013,07,01,16,25,27.10
2013,07,01,16,26,27.00
2013,07,01,16,27,27.10
2013,07,01,16,28,27.10
2013,07,01,16,29,27.20
2013,07,01,16,30,27.30
2013,07,01,16,31,27.40
2013,07,01,16,32,27.40
2013,07,01,16,33,27.60
2013,07,01,16,34,27.60
2013,07,01,16,35,27.60
2013,07,01,16,36,27.40
2013,07,01,16,37,27.30
2013,07,01,16,38,27.30
2013,07,01,16,39,27.40
2013,07,01,16,40,27.40
2013,07,01,16,41,27.50
2013,07,01,16,42,27.40
2013,07,01,16,43,27.50
2013,07,01,16,44,27.40
2013,07,01,16,45,27.30
2013,07,01,16,46,27.20
2013,07,01,16,47,27.00
2013,07,01,16,48,26.90
2013,07,01,16,49,26.80
2013,07,01,16,50,26.70
2013,07,01,16,51,26.60
2013,07,01,16,52,26.60
2013,07,01,16,53,26.60
2013,07,01,16,54,26.60
2013,07,01,16,55,26.60
2013,07,01,16,56,26.70
2013,07,01,16,57,26.80
2013,07,01,16,58,26.90
2013,07,01,16,59,27.20
2013,07,01,17,00,27.30
2013,07,01,17,01,27.40
2013,07,01,17,02,27.40
2013,07,01,17,03,27.50
2013,07,01,17,04,27.60
2013,07,01,17,05,27.60
2013,07,01,17,06,27.60
2013,07,01,17,07,27.60
2013,07,01,17,08,27.60
2013,07,01,17,09,27.50
2013,07,01,17,10,27.40
2013,07,01,17,11,27.30
2013,07,01,17,12,27.30
2013,07,01,17,13,27.20
2013,07,01,17,14,27.20
2013,07,01,17,15,27.10
2013,07,01,17,16,27.10
2013,07,01,17,17,27.10
2013,07,01,17,18,27.00
2013,07,01,17,19,26.90